GW3919 Weather Reports


Display with metric or nautical units.
time (UTC)temp
F
wind
direction
speed
MPH
gust
MPH
rain 1hr
in
rain 24hr
in
rain mn
in
humidity
%
barometer
mb
20260503210341 85 195 0.0 5.0 0.00 0.00 0.00 35 1017.2
20260503205836 84 332 2.0 9.0 0.00 0.00 0.00 36 1017.4
20260503205332 85 276 2.0 4.0 0.00 0.00 0.00 36 1017.4
20260503204829 86 98 3.0 4.0 0.00 0.00 0.00 35 1017.7
20260503204327 85 70 2.0 10.0 0.00 0.00 0.00 34 1017.7
20260503203824 85 19 2.0 4.0 0.00 0.00 0.00 35 1017.8
20260503203321 86 300 4.0 4.0 0.00 0.00 0.00 34 1017.8
20260503202818 83 306 5.0 6.0 0.00 0.00 0.00 35 1017.9
20260503202316 84 113 4.0 6.0 0.00 0.00 0.00 35 1017.9
20260503201814 85 61 3.0 6.0 0.00 0.00 0.00 35 1018.1
20260503201310 85 97 2.0 6.0 0.00 0.00 0.00 35 1018.2
20260503200808 84 106 3.0 5.0 0.00 0.00 0.00 34 1018.2
20260503200303 84 106 1.0 12.0 0.00 0.00 0.00 33 1018.5
20260503195801 84 306 1.0 3.0 0.00 0.00 0.00 34 1018.2
20260503195258 84 316 2.0 3.0 0.00 0.00 0.00 34 1018.5
20260503194755 84 332 4.0 6.0 0.00 0.00 0.00 34 1018.6
20260503194251 82 0 1.0 8.0 0.00 0.00 0.00 36 1018.7
20260503193747 83 146 2.0 3.0 0.00 0.00 0.00 37 1018.6
20260503193243 84 114 4.0 5.0 0.00 0.00 0.00 34 1018.7
20260503192739 84 331 3.0 5.0 0.00 0.00 0.00 37 1018.7
20260503192234 84 153 2.0 6.0 0.00 0.00 0.00 36 1018.7
20260503191731 84 331 0.0 4.0 0.00 0.00 0.00 38 1018.9
20260503191229 83 116 6.0 6.0 0.00 0.00 0.00 39 1018.9
20260503190726 84 276 2.0 4.0 0.00 0.00 0.00 36 1019.1
20260503190222 83 350 2.0 4.0 0.00 0.00 0.00 37 1019.3
20260503185719 83 104 3.0 6.0 0.00 0.00 0.00 38 1019.3
20260503185215 82 290 0.0 5.0 0.00 0.00 0.00 39 1019.3
20260503184709 83 114 2.0 6.0 0.00 0.00 0.00 39 1019.4
20260503184206 83 287 0.0 5.0 0.00 0.00 0.00 38 1019.4
20260503183703 82 151 2.0 10.0 0.00 0.00 0.00 38 1019.6
20260503183200 82 41 3.0 8.0 0.00 0.00 0.00 42 1019.4
20260503182658 82 114 3.0 9.0 0.00 0.00 0.00 40 1019.7
20260503182156 82 108 4.0 6.0 0.00 0.00 0.00 38 1019.8
20260503181652 83 5 3.0 4.0 0.00 0.00 0.00 41 1020.1
20260503181149 82 78 2.0 5.0 0.00 0.00 0.00 41 1019.9
20260503180646 81 45 3.0 5.0 0.00 0.00 0.00 42 1020.1
20260503180144 81 105 7.0 9.0 0.00 0.00 0.00 42 1020.3
20260503175641 80 91 4.0 10.0 0.00 0.00 0.00 42 1020.3
20260503175138 81 85 2.0 5.0 0.00 0.00 0.00 42 1020.3
20260503174634 81 132 2.0 7.0 0.00 0.00 0.00 42 1020.3
20260503174132 80 159 4.0 8.0 0.00 0.00 0.00 41 1020.6
20260503173627 82 91 2.0 4.0 0.00 0.00 0.00 43 1020.6
20260503173124 82 51 2.0 5.0 0.00 0.00 0.00 42 1020.6
20260503172620 81 124 3.0 4.0 0.00 0.00 0.00 44 1020.7
20260503172118 80 289 2.0 4.0 0.00 0.00 0.00 45 1020.8
20260503171614 79 31 2.0 7.0 0.00 0.00 0.00 45 1020.8
20260503171112 80 92 3.0 4.0 0.00 0.00 0.00 46 1021.2
20260503170609 81 148 0.0 5.0 0.00 0.00 0.00 44 1021.1
20260503170105 80 184 2.0 6.0 0.00 0.00 0.00 44 1021.0
20260503151000 74 78 3.0 9.0 0.00 0.00 0.00 51 1021.3
20260503150457 75 40 1.0 6.0 0.00 0.00 0.00 51 1021.4
20260503131350 67 116 2.0 2.0 0.00 0.00 0.00 66 1021.0
20260503130847 67 22 0.0 2.0 0.00 0.00 0.00 66 1021.2
20260503130344 66 135 0.0 2.0 0.00 0.00 0.00 67 1020.9
20260503110744 52 315 0.0 0.0 0.00 0.00 0.00 91 1020.4
20260503110241 52 123 0.0 1.0 0.00 0.00 0.00 90 1020.4
20260503100208 52 132 1.0 2.0 0.00 0.00 0.00 90 1020.0
20260503090131 53 147 0.0 1.0 0.00 0.00 0.00 88 1020.0
20260503081607 54 124 0.0 0.0 0.00 0.00 0.00 85 1020.0
20260503081105 54 218 0.0 0.0 0.00 0.00 0.00 85 1019.9
20260503080600 54 95 0.0 1.0 0.00 0.00 0.00 84 1020.0
20260503072540 56 113 0.0 1.0 0.00 0.00 0.00 80 1020.2
20260503072037 57 116 0.0 2.0 0.00 0.00 0.00 79 1020.3
20260503071533 57 230 0.0 0.0 0.00 0.00 0.00 78 1020.1
20260503071030 57 137 0.0 2.0 0.00 0.00 0.00 78 1020.1
20260503070526 57 94 0.0 2.0 0.00 0.00 0.00 77 1020.3
20260503054945 59 114 0.0 1.0 0.00 0.00 0.00 71 1020.2
20260503054441 60 113 1.0 2.0 0.00 0.00 0.00 71 1020.2
20260503053939 60 60 0.0 1.0 0.00 0.00 0.00 69 1020.1
20260503053437 60 96 0.0 1.0 0.00 0.00 0.00 69 1020.1
20260503052933 60 121 2.0 2.0 0.00 0.00 0.00 68 1020.2
20260503052431 60 142 0.0 1.0 0.00 0.00 0.00 68 1020.1
20260503051927 61 148 0.0 2.0 0.00 0.00 0.00 67 1020.0
20260503051423 61 85 0.0 0.0 0.00 0.00 0.00 65 1020.1
20260503050920 62 77 0.0 1.0 0.00 0.00 0.00 64 1020.0
20260503050416 62 84 0.0 2.0 0.00 0.00 0.00 63 1019.8
20260503045914 63 279 0.0 1.0 0.00 0.00 0.00 61 1019.9
20260503045411 63 44 0.0 2.0 0.00 0.00 0.00 61 1020.0
20260503044908 63 258 0.0 2.0 0.00 0.00 0.00 60 1020.2
20260503044404 64 224 0.0 1.0 0.00 0.00 0.00 60 1020.1
20260503043901 64 13 0.0 2.0 0.00 0.00 0.00 59 1020.0
20260503043358 64 21 0.0 1.0 0.00 0.00 0.00 60 1019.9
20260503042855 64 129 0.0 0.0 0.00 0.00 0.00 60 1019.9
20260503042351 65 217 0.0 0.0 0.00 0.00 0.00 58 1020.0
20260503041847 65 0 1.0 3.0 0.00 0.00 0.00 58 1019.7
20260503041345 64 8 0.0 2.0 0.00 0.00 0.00 59 1019.8
20260503040843 64 290 0.0 2.0 0.00 0.00 0.00 59 1020.3
20260503040340 64 107 0.0 1.0 0.00 0.00 0.00 60 1020.2
20260503035837 64 352 0.0 1.0 0.00 0.00 0.00 60 1020.1
20260503035334 65 37 0.0 1.0 0.00 0.00 0.00 59 1019.9
20260503034831 65 325 0.0 2.0 0.00 0.00 0.00 58 1019.9
20260503034328 65 25 0.0 2.0 0.00 0.00 0.00 58 1020.0
20260503033825 64 351 0.0 1.0 0.00 0.00 0.00 58 1020.0
20260503033323 64 201 0.0 2.0 0.00 0.00 0.00 59 1019.9
20260503032821 63 69 0.0 0.0 0.00 0.00 0.00 62 1020.0
20260503032320 63 26 0.0 0.0 0.00 0.00 0.00 63 1019.8
20260503031816 63 65 0.0 1.0 0.00 0.00 0.00 62 1019.8
20260503031314 63 124 0.0 0.0 0.00 0.00 0.00 61 1019.7
20260503030810 63 208 0.0 1.0 0.00 0.00 0.00 61 1019.6
20260503030307 63 322 0.0 0.0 0.00 0.00 0.00 62 1019.7
20260503025803 63 224 0.0 0.0 0.00 0.00 0.00 63 1019.9
20260503025301 63 119 0.0 0.0 0.00 0.00 0.00 64 1019.5
20260503024758 63 283 0.0 0.0 0.00 0.00 0.00 62 1019.6
20260503024255 64 147 0.0 0.0 0.00 0.00 0.00 62 1019.5
20260503023751 64 103 0.0 0.0 0.00 0.00 0.00 62 1019.4
20260503023249 64 35 0.0 0.0 0.00 0.00 0.00 61 1019.8
20260503022744 65 0 0.0 1.0 0.00 0.00 0.00 60 1019.5
20260503022239 65 157 0.0 1.0 0.00 0.00 0.00 61 1019.5
20260503021736 65 155 0.0 0.0 0.00 0.00 0.00 58 1019.4
20260503021232 66 345 0.0 0.0 0.00 0.00 0.00 57 1019.3
20260503020730 66 269 0.0 0.0 0.00 0.00 0.00 56 1019.2
20260503020228 66 142 0.0 1.0 0.00 0.00 0.00 56 1019.3
20260503015724 66 304 0.0 0.0 0.00 0.00 0.00 55 1019.0
20260503015221 66 129 0.0 1.0 0.00 0.00 0.00 56 1019.2
20260503014717 66 50 0.0 0.0 0.00 0.00 0.00 58 1019.2
20260503014215 67 73 2.0 2.0 0.00 0.00 0.00 58 1019.0
20260503013712 67 210 0.0 1.0 0.00 0.00 0.00 56 1019.0
20260503013210 68 304 0.0 2.0 0.00 0.00 0.00 55 1019.0
20260503012707 68 269 0.0 0.0 0.00 0.00 0.00 53 1019.0
20260503012204 69 269 0.0 0.0 0.00 0.00 0.00 53 1019.0
20260503011700 69 235 0.0 0.0 0.00 0.00 0.00 53 1018.8
20260503011152 70 235 0.0 1.0 0.00 0.00 0.00 50 1018.9
20260503010648 71 319 0.0 1.0 0.00 0.00 0.00 49 1018.8
20260503010145 71 269 0.0 1.0 0.00 0.00 0.00 48 1018.7
20260503005642 72 322 0.0 1.0 0.00 0.00 0.00 46 1018.7
20260503005139 73 49 0.0 0.0 0.00 0.00 0.00 44 1018.9
20260503004635 73 133 1.0 2.0 0.00 0.00 0.00 42 1018.9
20260503004134 74 62 0.0 0.0 0.00 0.00 0.00 41 1018.7
20260503003630 76 269 0.0 1.0 0.00 0.00 0.00 38 1018.7
20260503003127 77 37 0.0 1.0 0.00 0.00 0.00 37 1018.8
20260503002624 79 38 0.0 0.0 0.00 0.00 0.00 36 1018.5
20260503002121 79 269 0.0 0.0 0.00 0.00 0.00 35 1018.6
20260503001617 78 315 0.0 2.0 0.00 0.00 0.00 34 1018.5
20260503001114 79 136 2.0 3.0 0.00 0.00 0.00 34 1018.4
20260503000612 78 126 2.0 2.0 0.00 0.00 0.00 34 1018.5
20260503000109 78 113 2.0 4.0 0.00 0.00 0.00 33 1018.7
20260502235605 80 179 2.0 3.0 0.00 0.00 0.00 33 1018.6
20260502235103 80 13 0.0 3.0 0.00 0.00 0.00 33 1018.7
20260502234559 80 187 2.0 2.0 0.00 0.00 0.00 32 1018.8
20260502234058 79 141 2.0 3.0 0.00 0.00 0.00 32 1018.6
20260502233557 79 41 2.0 3.0 0.00 0.00 0.00 32 1018.6
20260502233054 80 213 2.0 4.0 0.00 0.00 0.00 32 1018.8
20260502232550 79 135 3.0 4.0 0.00 0.00 0.00 33 1018.7
20260502232048 79 144 1.0 6.0 0.00 0.00 0.00 33 1018.9
20260502231544 79 133 4.0 6.0 0.00 0.00 0.00 34 1018.8
20260502231043 77 166 4.0 9.0 0.00 0.00 0.00 33 1018.8
20260502230541 78 152 4.0 8.0 0.00 0.00 0.00 34 1018.9
20260502230039 78 143 4.0 6.0 0.00 0.00 0.00 34 1018.8
20260502225534 78 160 3.0 8.0 0.00 0.00 0.00 33 1018.8
20260502225031 81 99 2.0 2.0 0.00 0.00 0.00 33 1018.7
20260502224527 79 130 1.0 6.0 0.00 0.00 0.00 34 1019.0
20260502224025 79 85 4.0 4.0 0.00 0.00 0.00 34 1019.0
20260502223522 80 147 3.0 6.0 0.00 0.00 0.00 32 1018.9
20260502223020 80 147 3.0 4.0 0.00 0.00 0.00 33 1018.9
20260502222517 80 161 1.0 6.0 0.00 0.00 0.00 32 1019.1
20260502222014 81 166 0.0 3.0 0.00 0.00 0.00 33 1019.0
20260502221509 81 144 3.0 4.0 0.00 0.00 0.00 33 1018.9
20260502221007 80 191 0.0 4.0 0.00 0.00 0.00 32 1019.0
20260502220502 79 185 1.0 4.0 0.00 0.00 0.00 32 1019.1
20260502215959 78 153 5.0 5.0 0.00 0.00 0.00 34 1019.0
20260502215457 78 120 5.0 9.0 0.00 0.00 0.00 36 1019.1
20260502214953 78 135 4.0 6.0 0.00 0.00 0.00 35 1019.0
20260502214450 78 159 3.0 11.0 0.00 0.00 0.00 35 1019.2
20260502213947 80 132 6.0 9.0 0.00 0.00 0.00 34 1019.2
20260502213444 81 68 2.0 3.0 0.00 0.00 0.00 34 1019.3
20260502212943 80 114 2.0 3.0 0.00 0.00 0.00 35 1019.2
20260502212441 79 349 0.0 3.0 0.00 0.00 0.00 34 1019.4
20260502211938 79 129 4.0 5.0 0.00 0.00 0.00 33 1019.4
20260502211434 78 328 2.0 4.0 0.00 0.00 0.00 33 1019.7
20260502210931 77 133 3.0 6.0 0.00 0.00 0.00 35 1019.5